1998-067UV

Last updated on Mon Jan 09 2023 00:02:04 GMT+0000 (Coordinated Universal Time)

1 55128U 98067UV 23008.08048180 .00051002 00000+0 86045-3 0 9996 2 55128 51.6423 41.5553 0004513 269.4171 90.6301 15.51131201 1561
UTC large
Height (km)
Speed (km/s)
/
Latitude / Longitude
Inclination (degrees)
Orbital Period (minutes)
Azimuth
Elevation
Range (km)
Doppler Factor

Next 0 passes for location: London (51.5072 / 0.1276)

Sorry there are no passes over London.